(126878) = 1998 KX36 = 2000 WR147 = 2002 ES91

Discovered at Socorro on 2002-03-12 by LINEAR.

Orbit

Orbit type: Main Belt

Note: WebGL enabled browser required.

epoch2024-03-31.0
epoch JD2460400.5
perihelion date2023-12-08.32733
perihelion JD2460286.82733
argument of perihelion (°)306.86818
ascending node (°)245.56522
inclination (°)4.36651
eccentricity0.1547610
perihelion distance (AU)2.2457585
Tisserand w.r.t. Jupiter3.4
ΔV w.r.t. Earth (km/sec)9.5
semimajor axis (AU)2.6569508
mean anomaly (°)25.86930
mean daily motion (°/day)0.22757710
aphelion distance (AU)3.068
period (years)4.33
P-vector [x]-0.97443280
P-vector [y]-0.17419067
P-vector [z]-0.14190956
Q-vector [x]0.21371914
Q-vector [y]-0.91347380
Q-vector [z]-0.34625098
absolute magnitude15.69
phase slope0.15
uncertainty0
referenceMPEC 2024-F50
observations used960
oppositions19
arc length (days)9433
first opposition used1998
last opposition used2024
residual rms (arc-secs)0.67
perturbers coarse indicatorM-v
perturbers precise indicator003Ek
first observation date used1998-05-22.0
last observation date used2024-03-19.0
computer nameMPCLINUX
JD of orbit computation2456731.449280
perihelion JD uncertainty (days)1.0981E-04
argument of perihelion uncertainty (°)7.3970E-05
ascending node uncertainty (°)7.0430E-05
inclination uncertainty (°)6.9508E-06
eccentricity uncertainty 5.9585E-08
perihelion distance uncertainty (AU)1.5570E-07
Minimum Orbit Intersection Distances (in AU)
for orbit epoch: 2460400.5, reference: E2024-GH2
Mercury1.8253
Venus1.53145
Earth1.24865
Mars0.62696
Jupiter1.91007
Saturn6.19267
Uranus16.1364
Neptune26.7807

Observations

975 total observations over interval: 1998 05 22.27328 – 2024 03 19.639247
These data are available for download (format description).

Date (UT) J2000 RA J2000 Dec Magn Location Ref
1998 05 22.27328 16 09 31.04 -21 25 50.2 18.6   704 – Lincoln Laboratory ETS, New Mexico MPS 1506
1998 05 22.29276 16 09 29.92 -21 25 43.4 19.4   704 – Lincoln Laboratory ETS, New Mexico MPS 1506
1998 05 22.31232 16 09 28.80 -21 25 38.7 19.4   704 – Lincoln Laboratory ETS, New Mexico MPS 1506
1998 05 22.33199 16 09 27.51 -21 25 34.0 19.2   704 – Lincoln Laboratory ETS, New Mexico MPS 1506
1998 05 24.26047 16 07 41.28 -21 16 25.4 19.0   704 – Lincoln Laboratory ETS, New Mexico MPS 1506
1998 05 24.28008 16 07 40.31 -21 16 16.2 19.1   704 – Lincoln Laboratory ETS, New Mexico MPS 1506
1998 05 24.29979 16 07 39.02 -21 16 13.6 18.4   704 – Lincoln Laboratory ETS, New Mexico MPS 1506
1998 05 24.31962 16 07 37.99 -21 16 06.7 18.4   704 – Lincoln Laboratory ETS, New Mexico MPS 1506
1998 05 24.33938 16 07 36.75 -21 16 01.9 18.7   704 – Lincoln Laboratory ETS, New Mexico MPS 1506
1998 05 27.26878 16 04 56.22 -21 01 57.8 19.2   704 – Lincoln Laboratory ETS, New Mexico MPS 57323
1998 05 27.30839 16 04 53.90 -21 01 47.4 17.9   704 – Lincoln Laboratory ETS, New Mexico MPS 57323
1998 05 27.32805 16 04 52.78 -21 01 45.1 19.3   704 – Lincoln Laboratory ETS, New Mexico MPS 57323
1998 05 27.34774 16 04 51.33 -21 01 38.2 19.0   704 – Lincoln Laboratory ETS, New Mexico MPS 57323
2000 11 28.29796 04 08 20.65 +21 05 08.6 19.7 V 691 – Steward Observatory, Kitt Peak-Spacewatch MPS 23021
2000 11 28.32231 04 08 19.17 +21 05 02.7 19.5 V 691 – Steward Observatory, Kitt Peak-Spacewatch MPS 23021
2000 11 28.34875 04 08 17.56 +21 04 56.3 19.6 V 691 – Steward Observatory, Kitt Peak-Spacewatch MPS 23021
2000 12 03.27806 04 03 29.94 +20 45 08.7 19.6 V 691 – Steward Observatory, Kitt Peak-Spacewatch MPS 23021
2000 12 03.28449 04 03 29.56 +20 45 07.2 19.6 V 691 – Steward Observatory, Kitt Peak-Spacewatch MPS 23021
2000 12 03.29086 04 03 29.17 +20 45 05.7 19.6 V 691 – Steward Observatory, Kitt Peak-Spacewatch MPS 23021
2002 03 12.41666 12 37 33.90 -11 19 17.9 18.4   704 – Lincoln Laboratory ETS, New Mexico MPS 55830
2002 03 12.43495 12 37 33.17 -11 19 14.1 18.5   704 – Lincoln Laboratory ETS, New Mexico MPS 55830
2002 03 12.45314 12 37 32.41 -11 19 10.2 18.6   704 – Lincoln Laboratory ETS, New Mexico MPS 55830
2002 03 12.47118 12 37 31.68 -11 19 05.7 19.0   704 – Lincoln Laboratory ETS, New Mexico MPS 55830
2002 03 16.37969 12 34 52.65 -11 02 51.2 18.3   704 – Lincoln Laboratory ETS, New Mexico MPS 55830
2002 03 16.39252 12 34 52.05 -11 02 48.2 18.5   704 – Lincoln Laboratory ETS, New Mexico MPS 55830
2002 03 16.40611 12 34 51.44 -11 02 44.6 19.0   704 – Lincoln Laboratory ETS, New Mexico MPS 55830
2002 03 16.41924 12 34 50.83 -11 02 41.3 18.5   704 – Lincoln Laboratory ETS, New Mexico MPS 55830
2002 03 16.43275 12 34 50.22 -11 02 37.4 18.8   704 – Lincoln Laboratory ETS, New Mexico MPS 55830
2002 03 18.34230 12 33 27.38 -10 53 33.2 18.8   704 – Lincoln Laboratory ETS, New Mexico MPS 54934
2002 03 18.35543 12 33 26.73 -10 53 30.1 18.3   704 – Lincoln Laboratory ETS, New Mexico MPS 54934
2002 03 18.36868 12 33 26.15 -10 53 26.6 19.0   704 – Lincoln Laboratory ETS, New Mexico MPS 54934
2002 03 23.35024 12 29 37.68 -10 26 48.0 17.9   704 – Lincoln Laboratory ETS, New Mexico MPS 57323
2002 03 23.36328 12 29 37.05 -10 26 43.4 18.4   704 – Lincoln Laboratory ETS, New Mexico MPS 57323
2002 03 23.37778 12 29 36.33 -10 26 38.4 18.4   704 – Lincoln Laboratory ETS, New Mexico MPS 57323
2002 03 23.39273 12 29 35.59 -10 26 32.8 17.9   704 – Lincoln Laboratory ETS, New Mexico MPS 57323
2002 03 23.40523 12 29 34.98 -10 26 28.7 18.1   704 – Lincoln Laboratory ETS, New Mexico MPS 57323
2002 04 04.27650 12 20 09.43 -09 10 18.6 17.8   644 – Palomar Mountain/NEAT MPS 54934
2002 04 04.29874 12 20 08.33 -09 10 09.4 17.8   644 – Palomar Mountain/NEAT MPS 54934
2002 04 04.31979 12 20 07.31 -09 10 00.8 17.9   644 – Palomar Mountain/NEAT MPS 54934
2002 04 05.29582 12 19 22.30 -09 03 16.4 18.0   644 – Palomar Mountain/NEAT MPS 54934
2002 04 05.32337 12 19 20.97 -09 03 05.0 17.9   644 – Palomar Mountain/NEAT MPS 54934
2002 04 05.36716 12 19 18.87 -09 02 46.7 18.5   644 – Palomar Mountain/NEAT MPS 54934
2002 04 09.25112 12 16 25.87 -08 35 43.2 18.2   704 – Lincoln Laboratory ETS, New Mexico MPS 54934
2002 04 09.26277 12 16 25.37 -08 35 38.1 18.6   704 – Lincoln Laboratory ETS, New Mexico MPS 54934
2002 04 09.27441 12 16 24.86 -08 35 33.6 18.3   704 – Lincoln Laboratory ETS, New Mexico MPS 54934
2002 04 09.28607 12 16 24.29 -08 35 28.3 18.2   704 – Lincoln Laboratory ETS, New Mexico MPS 54934
2002 04 10.24698 12 15 43.56 -08 28 46.2 18.5   704 – Lincoln Laboratory ETS, New Mexico MPS 54934
2002 04 10.25903 12 15 43.04 -08 28 40.7 18.5   704 – Lincoln Laboratory ETS, New Mexico MPS 54934
2002 04 10.26983 12 15 42.47 -08 28 38.2 18.7   704 – Lincoln Laboratory ETS, New Mexico MPS 54934
2002 04 10.27070 12 15 42.51 -08 28 36.1 19.0   704 – Lincoln Laboratory ETS, New Mexico MPS 54934
2002 04 10.28134 12 15 41.93 -08 28 33.3 18.4   704 – Lincoln Laboratory ETS, New Mexico MPS 54934
2002 04 10.29280 12 15 41.42 -08 28 28.5 18.6   704 – Lincoln Laboratory ETS, New Mexico MPS 54934
2002 04 12.25499 12 14 20.59 -08 14 50.7 18.2   704 – Lincoln Laboratory ETS, New Mexico MPS 54934
2002 04 12.26909 12 14 19.99 -08 14 44.3 18.4   704 – Lincoln Laboratory ETS, New Mexico MPS 54934
2002 04 12.28297 12 14 19.50 -08 14 39.7 18.6   704 – Lincoln Laboratory ETS, New Mexico MPS 54934
2002 04 12.29683 12 14 18.73 -08 14 33.0 19.5   704 – Lincoln Laboratory ETS, New Mexico MPS 54934
2002 04 12.31069 12 14 18.19 -08 14 27.3 18.4   704 – Lincoln Laboratory ETS, New Mexico MPS 54934
2002 04 12.46156 12 14 11.92 -08 13 22.1 19.0   608 – Haleakala-AMOS MPS 54934
2002 04 12.47206 12 14 11.49 -08 13 17.7 19.2   608 – Haleakala-AMOS MPS 54934
2002 04 12.48277 12 14 11.05 -08 13 13.0 19.2   608 – Haleakala-AMOS MPS 54934
2002 04 14.34472 12 12 58.63 -08 00 28.2 18.2   704 – Lincoln Laboratory ETS, New Mexico MPS 54934
2002 04 14.35856 12 12 58.13 -08 00 22.1 18.5   704 – Lincoln Laboratory ETS, New Mexico MPS 54934
2002 04 14.39990 12 12 56.50 -08 00 04.7 18.5   704 – Lincoln Laboratory ETS, New Mexico MPS 54934
2002 04 15.24190 12 12 25.43 -07 54 22.5 18.0 R 699 – Lowell Observatory-LONEOS MPS 57323
2002 04 15.26527 12 12 24.46 -07 54 14.2   699 – Lowell Observatory-LONEOS MPS 57323
2002 04 15.28851 12 12 23.54 -07 54 03.8   699 – Lowell Observatory-LONEOS MPS 57323
2002 04 15.31173 12 12 22.62 -07 53 53.6   699 – Lowell Observatory-LONEOS MPS 57323
2002 04 29.15483 12 06 09.09 -06 29 48.6 19.3   644 – Palomar Mountain/NEAT MPS 57323
2002 04 29.17691 12 06 08.74 -06 29 41.8 19.8   644 – Palomar Mountain/NEAT MPS 57323
2002 04 29.19808 12 06 08.30 -06 29 34.8 18.9   644 – Palomar Mountain/NEAT MPS 57323
2002 04 30.16301 12 05 53.51 -06 24 38.9 18.8   644 – Palomar Mountain/NEAT MPS 54934
2002 04 30.18391 12 05 53.18 -06 24 32.7 18.8   644 – Palomar Mountain/NEAT MPS 54934
2002 04 30.20477 12 05 52.83 -06 24 26.2 18.8   644 – Palomar Mountain/NEAT MPS 54934
2002 06 08.18043 12 17 08.67 -05 25 42.2 19.4   704 – Lincoln Laboratory ETS, New Mexico MPS 57323
2002 06 08.19427 12 17 09.34 -05 25 43.7 19.9   704 – Lincoln Laboratory ETS, New Mexico MPS 57323
2002 06 08.22199 12 17 10.53 -05 25 47.2 19.4   704 – Lincoln Laboratory ETS, New Mexico MPS 57323
2003 08 05.29933 21 24 09.05 -08 29 17.4 19.2   704 – Lincoln Laboratory ETS, New Mexico MPS 82677
2003 08 05.31196 21 24 08.40 -08 29 20.9 19.3   704 – Lincoln Laboratory ETS, New Mexico MPS 82677
2003 08 05.32300 21 24 07.78 -08 29 22.6 19.3   704 – Lincoln Laboratory ETS, New Mexico MPS 82677
2004 10 06.45462 02 35 44.28 +18 47 32.5 19.9   644 – Palomar Mountain/NEAT MPS 115716
2004 10 06.46807 02 35 43.80 +18 47 29.1 19.3   644 – Palomar Mountain/NEAT MPS 115716
2004 10 06.48677 02 35 43.01 +18 47 25.7 20.0   644 – Palomar Mountain/NEAT MPS 115716
2004 10 12.32773 02 31 35.35 +18 25 45.6 20.1 V 691 – Steward Observatory, Kitt Peak-Spacewatch MPS 116588
2004 10 12.35459 02 31 34.11 +18 25 39.1 20.0 V 691 – Steward Observatory, Kitt Peak-Spacewatch MPS 116588
2004 10 12.38166 02 31 32.83 +18 25 32.4 20.2 V 691 – Steward Observatory, Kitt Peak-Spacewatch MPS 116588
